Regional Weather Roundup
Issued by NWS

Home | Current Version | Previous Version | Text Only | Print | Product List | Glossary Off
Versions: 1 2 3 4 5 6 7 8 9 10 11 12 13 14 15 16 17 18 19 20 21 22 23 24 25 26 27 28 29 30 31 32 33 34 35 36 37 38 39 40 41 42 43 44 45 46 47 48 49 50

612
ASUS43 KTOP 251508
RWRKS

WEATHER ROUNDUP FOR KANSAS
NATIONAL WEATHER SERVICE GOODLAND KS
1000 AM CDT MON SEP 25 2017

NOTE:  "FAIR" INDICATES FEW OR NO CLOUDS BELOW 12,000 FEET WITH NO
SIGNIFICANT WEATHER AND/OR OBSTRUCTIONS TO VISIBILITY.

KSZ001>006-013>018-027>032-041>047-251600-
NORTHWEST KANSAS

CITY           SKY/WX    TMP DP  RH WIND       PRES   REMARKS
GOODLAND       CLOUDY    49  47  93 N15       30.04R
HAYS           CLOUDY    58  57  97 NE10      29.95R FOG
HILL CITY      CLOUDY    54  53  97 N14       30.01R
RUSSELL        TSTM      62  61  96 NW12      29.95R
$$

KSZ061>065-074>080-084>089-251600-
SOUTHWEST KANSAS

CITY           SKY/WX    TMP DP  RH WIND       PRES   REMARKS
DODGE CITY     CLOUDY    61  60  97 NW10      29.93R
ELKHART          N/A     56  56 100 N12         N/A
GARDEN CITY    CLOUDY    56  54  93 N17       29.97R
GREAT BEND     TSTM      64  63  96 N9        29.92R FOG
LIBERAL        CLOUDY    60  59  96 N15       29.96R
PRATT          TSTM      67  65  92 S7        29.92R
$$

KSZ066>073-081>083-090>101-251600-
SOUTHEAST KANSAS

CITY           SKY/WX    TMP DP  RH WIND       PRES   REMARKS
CHANUTE        SUNNY     78  66  66 S14       29.96S
COFFEYVILLE    SUNNY     78  67  68 S10       29.95F
HUTCHINSON     LGT RAIN  70  67  90 S13       29.91S
MEDICINE LODGE   N/A     65  61  87 SE6       29.70F
NEWTON         MOSUNNY   75  65  70 S14       29.92S
PARSONS        SUNNY     76  67  73 VRB5      29.97S
WICHITA INTL   CLOUDY    75  66  73 S10       29.91R
WICHITA JABRA  PTSUNNY   77  67  71 S13       29.92R
WICHITA MCCONL CLOUDY    76  64  66 S12       29.92R
WINFIELD       MOSUNNY   78  68  71 S13       29.93F
$$

KSZ007>012-019>026-033>040-048>060-102>105-251600-
NORTHEAST KANSAS

CITY           SKY/WX    TMP DP  RH WIND       PRES   REMARKS
CONCORDIA      LGT RAIN  61  61 100 NE3       29.93F FOG
EMPORIA        CLOUDY    74  65  73 S15       29.93S
LAWRENCE       SUNNY     77  68  73 SE9       29.94S
MANHATTAN      MOSUNNY   80  66  62 S12       29.90S
MARYSVILLE     TSTM      68  68 100 NW8       29.94R
OLATHE IND     SUNNY     76  66  71 S13       29.97S
OLATHE EXE     SUNNY     75  68  78 S8        29.97R
SALINA         MOSUNNY   76  67  73 CALM      29.91R
TOPEKA BILLARD CLOUDY    77  69  76 S9        29.92F
TOPEKA FORBES  MOSUNNY   79  68  69 S12       29.92F
$$




USA.gov is the U.S. government's official web portal to all federal, state and local government web resources and services.